COSMOS 2395 (GLONASS)

Satellite information

Favourite Embed

Satellite Type and Status

PAYLOADIN ORBIT

Key statistics

Satellite COSMOS 2395 (GLONASS) at a glance.

Uptime

8293

Days in orbit

Revolutions

≈ 2.1

Per day

Orbit

MEO

Medium Earth Orbit

Inclination

65.6

Latest

Satellite identification and parameters

Extended collection of information and parameters for COSMOS 2395 (GLONASS).

Object identification

Identified? True

Debris? False

Object name: COSMOS 2395 (GLONASS)

International designator: 2002-060C

Object number (NORAD): 27619

Object ID (CCSDS): 27619

Country: COMMONWEALTH OF INDEPENDENT STATES (CIS)

Current information (Y/N): Y

RCS size: LARGE

Orbital parameters

Period: 675.727 minutes

Inclination: 65.6037 deg

SMA: 25507.886 km

Apoapsis: 19161.989 km

Periapsis: 19097.514 km

RAAN: 325.597 deg

Eccentricy: 0.00126383

Argument of periapsis: 246.3458 deg

Mean anomaly: 110.3904 deg

Mean motion: 2.13103733 rev/day

Mean motion (dot): -0.00000069 rev/day2

B* drag term: 0.0 1/REarth

Two-line elements (TLE)

Creation date: Aug. 31, 2025, 11:35 a.m.

Reference frame: TEME

Reference center: EARTH

Epoch: Aug. 31, 2025, 12:32 a.m. UTC

TLE line 0: 0 COSMOS 2395 (GLONASS)

TLE line 1: 1 27619U 02060C 25243.02250569 -.00000069 00000-0 00000-0 0 9994

TLE line 2: 2 27619 65.6037 325.5970 0012638 246.3458 110.3904 2.13103733176451

Live tracking on map

Real-time ground track for satellite COSMOS 2395 (GLONASS).

In-orbit conjunctions

A list of the most updated potential collisions computed for object COSMOS 2395 (GLONASS).

Target Orbit TCA Probability of collision Miss distance Type
SL-12 R/B(2) MEO 2025-08-18 11:05:38 TBA 1851.0 (m) ROCKET BODY

Associated space launch

GLONASS navigation satellites

COSMOS 2395 (GLONASS) was lifted into orbit during the mission ‘Proton-K/DM-2M | Uragan 80 to 82’, on board a Proton-K/DM-2M space rocket.

The launch took place on Dec. 25, 2002, 7:37 a.m. from 81/23 (81L).

For more information about the launch, click the button.

Launch to space Proton-K/DM-2M | Uragan 80 to 82
Proton-K/DM-2M | Uragan 80 to 82

Agency: N/A

Status: Launch Successful

Launch date: Dec. 25, 2002, 7:37 a.m. UTC

Rocket: Proton-K/DM-2M

Launch pad: 81/23 (81L)

Location: Baikonur Cosmodrome, Republic of Kazakhstan

...

Latest news about this satellite

There are no fresh news available about this satellite. Check back as we update our databases every day.


Newsletter sign-up

Weekly statistics, charts and insights to help you stay on top of the space industry.